{"data":{"norad_id":63783,"intl_designator":"2025-091J","name":"STARLINK-33892","alt_names":[],"object_type":"PAYLOAD","status":"ACTIVE","operator":null,"country":"US","launch_date":"2025-05-02","launch_site_code":"AFETR","launch_vehicle":null,"mission":null,"orbit_class":"UNKNOWN","rcs_meters":null,"size_class":null,"mass_kg":null,"dimensions":null,"purposes":["comms"],"wikipedia_slug":null,"has_3d_model":false,"image_url":null,"decayed_at":null,"tle_current":{"epoch":"2026-05-24T20:59:09.005856Z","epoch_age_seconds":86215,"freshness":"FRESH","line1":"1 63783U 25091J   26144.87440979  .00011693  00000+0  43380-3 0  9999","line2":"2 63783  43.0049 342.2796 0001694 251.9483 108.1185 15.27577183 60550","mean_motion":15.27577183,"eccentricity":0.0001694,"inclination_deg":43.0049,"raan_deg":342.2796,"arg_perigee_deg":251.9483,"mean_anomaly_deg":108.1185,"bstar":0.0004338,"rev_number":6055,"period_min":94.266922550649,"perigee_km":481.89524481045,"apogee_km":484.2198175176,"semimajor_km":6861.194531164,"source":"CELESTRAK","updated_at":"2026-05-25T13:38:20.134628Z"}}}